WXM80 ListenWXM80 Stop

You find our weather info also at:

UK Metoffice

WeatherCloud

Weather Underground

Northeastern Weather Network

AWEKAS

Citizen Weather Observer Program (CWOP)

HAMweather, WeatherForYou, PWS Weather


Weather Underground History page Text

Daily Summary for January 19, 2017 Units:  English    Metric   Both
« Previous Day
Next Day »
Daily Weekly Monthly Yearly Custom
  High: Low: Average:
Temperature: 49.6 °F 33.6 °F 41.7 °F
Dew Point: 41.1 °F 32.1 °F 37.4 °F
Humidity: 97 % 70 % 85 %
Wind Speed: 8.2 mph 0.0 mph 1.3 mph
Wind Gust: 12.7 mph - -
Wind:- - WSW
Pressure: 30.02 in 29.94 in -
Precipitation: 0.00 in    
Historical Graphs
 
 
Tabular Data for January 19, 2017
Time Temperature Dew Point Pressure Wind Wind Speed Wind Gust Humidity Rainfall Rate (Hourly)
00:04 38.8 °F 37.2 °F 29.97 in Calm   2.0 mph 94 % 0.00 in
00:09 38.8 °F 37.2 °F 29.97 in North 0.1 mph 1.2 mph 94 % 0.00 in
00:14 38.8 °F 37.2 °F 29.97 in North 1.0 mph 4.0 mph 94 % 0.00 in
00:19 38.8 °F 37.2 °F 29.98 in Calm   2.0 mph 94 % 0.00 in
00:24 38.8 °F 37.2 °F 29.98 in NNW 1.2 mph 2.3 mph 94 % 0.00 in
00:29 38.7 °F 37.1 °F 29.98 in Calm   3.0 mph 94 % 0.00 in
00:34 38.7 °F 37.1 °F 29.98 in North 0.3 mph 2.3 mph 94 % 0.00 in
00:39 38.7 °F 37.1 °F 29.98 in North 1.0 mph 2.0 mph 94 % 0.00 in
00:44 38.7 °F 37.1 °F 29.98 in NNW 1.5 mph 3.5 mph 94 % 0.00 in
00:49 38.7 °F 37.1 °F 29.99 in Calm   3.0 mph 94 % 0.00 in
00:54 38.6 °F 37.0 °F 29.98 in Calm   3.0 mph 94 % 0.00 in
00:59 38.6 °F 37.0 °F 29.99 in NNW 0.2 mph 1.2 mph 94 % 0.00 in
01:04 38.6 °F 37.0 °F 29.99 in Calm   3.0 mph 94 % 0.00 in
01:09 38.6 °F 37.0 °F 29.99 in NNW 1.0 mph 3.0 mph 94 % 0.00 in
01:14 38.5 °F 36.9 °F 29.99 in NNW 1.2 mph 3.5 mph 94 % 0.00 in
01:19 38.5 °F 36.9 °F 29.99 in Calm   3.0 mph 94 % 0.00 in
01:24 38.4 °F 36.8 °F 29.99 in Calm   3.0 mph 94 % 0.00 in
01:29 38.4 °F 36.8 °F 29.99 in North 1.0 mph 3.0 mph 94 % 0.00 in
01:34 38.4 °F 36.8 °F 30.00 in Calm   3.0 mph 94 % 0.00 in
01:39 38.4 °F 36.8 °F 30.00 in Calm     94 % 0.00 in
01:44 38.3 °F 36.7 °F 30.00 in Calm   2.0 mph 94 % 0.00 in
01:49 38.3 °F 36.7 °F 30.00 in Calm   2.0 mph 94 % 0.00 in
01:54 38.3 °F 36.7 °F 30.00 in North 1.0 mph 2.0 mph 94 % 0.00 in
02:00 38.2 °F 36.6 °F 30.00 in Calm   2.3 mph 94 % 0.00 in
02:05 38.1 °F 36.5 °F 30.00 in Calm     94 % 0.00 in
02:10 38.0 °F 36.4 °F 30.00 in Calm     94 % 0.00 in
02:15 38.0 °F 36.4 °F 30.00 in Calm     94 % 0.00 in
02:21 37.9 °F 36.3 °F 30.00 in Calm     94 % 0.00 in
02:26 37.8 °F 36.2 °F 30.00 in Calm     94 % 0.00 in
02:31 37.7 °F 35.9 °F 30.00 in Calm     93 % 0.00 in
02:36 37.6 °F 35.8 °F 30.00 in Calm     93 % 0.00 in
02:41 37.5 °F 35.7 °F 30.00 in Calm     93 % 0.00 in
02:46 37.5 °F 35.9 °F 30.00 in Calm     94 % 0.00 in
02:51 37.5 °F 35.9 °F 29.99 in Calm     94 % 0.00 in
02:56 37.4 °F 35.8 °F 29.99 in Calm     94 % 0.00 in
03:01 37.4 °F 35.8 °F 29.99 in Calm     94 % 0.00 in
03:06 37.4 °F 35.8 °F 30.00 in Calm     94 % 0.00 in
03:11 37.4 °F 35.8 °F 29.99 in Calm     94 % 0.00 in
03:16 37.4 °F 35.8 °F 29.99 in Calm     94 % 0.00 in
03:21 37.4 °F 35.8 °F 29.99 in Calm     94 % 0.00 in
03:26 37.4 °F 35.8 °F 29.99 in Calm     94 % 0.00 in
03:31 37.4 °F 35.8 °F 29.99 in Calm     94 % 0.00 in
03:36 37.4 °F 35.8 °F 29.99 in Calm     94 % 0.00 in
03:41 37.5 °F 35.9 °F 29.99 in Calm     94 % 0.00 in
03:47 37.5 °F 35.9 °F 30.00 in Calm   1.2 mph 94 % 0.00 in
03:52 37.5 °F 36.2 °F 30.00 in NNW 0.7 mph 2.3 mph 95 % 0.00 in
03:57 37.6 °F 36.3 °F 30.00 in Calm   2.3 mph 95 % 0.00 in
04:02 37.7 °F 36.4 °F 30.00 in NW 0.2 mph 1.2 mph 95 % 0.00 in
04:07 37.7 °F 36.4 °F 29.99 in Calm     95 % 0.00 in
04:12 37.7 °F 36.4 °F 29.99 in NW 0.3 mph 1.2 mph 95 % 0.00 in
04:17 37.7 °F 36.4 °F 29.99 in Calm   1.0 mph 95 % 0.00 in
04:22 37.8 °F 36.5 °F 29.99 in Calm     95 % 0.00 in
04:27 37.8 °F 36.5 °F 29.99 in Calm     95 % 0.00 in
04:32 37.7 °F 36.4 °F 29.99 in NW 0.1 mph 1.2 mph 95 % 0.00 in
04:37 37.7 °F 36.4 °F 29.99 in Calm     95 % 0.00 in
04:42 37.7 °F 36.4 °F 29.99 in Calm     95 % 0.00 in
04:47 37.6 °F 36.3 °F 29.99 in Calm   1.2 mph 95 % 0.00 in
04:52 37.5 °F 36.2 °F 29.99 in Calm     95 % 0.00 in
04:57 37.5 °F 36.2 °F 29.99 in Calm     95 % 0.00 in
05:02 37.4 °F 36.1 °F 29.99 in Calm     95 % 0.00 in
05:08 37.3 °F 36.0 °F 29.99 in Calm     95 % 0.00 in
05:13 37.3 °F 36.0 °F 29.98 in Calm     95 % 0.00 in
05:18 37.2 °F 35.9 °F 29.98 in Calm     95 % 0.00 in
05:23 37.2 °F 35.9 °F 29.98 in Calm     95 % 0.00 in
05:28 37.1 °F 35.8 °F 29.98 in Calm     95 % 0.00 in
05:33 37.1 °F 35.8 °F 29.99 in Calm     95 % 0.00 in
05:38 37.0 °F 35.7 °F 29.99 in Calm     95 % 0.00 in
05:43 36.8 °F 35.5 °F 29.99 in Calm     95 % 0.00 in
05:48 36.7 °F 35.4 °F 29.99 in Calm     95 % 0.00 in
05:53 36.6 °F 35.3 °F 29.99 in Calm     95 % 0.00 in
05:58 36.4 °F 34.8 °F 29.99 in Calm     94 % 0.00 in
06:03 36.2 °F 34.6 °F 29.99 in Calm     94 % 0.00 in
06:08 36.0 °F 34.4 °F 30.00 in Calm     94 % 0.00 in
06:13 35.9 °F 34.3 °F 29.99 in Calm     94 % 0.00 in
06:18 35.6 °F 34.0 °F 29.99 in Calm     94 % 0.00 in
06:23 35.4 °F 33.8 °F 29.99 in NW 0.1 mph 1.0 mph 94 % 0.00 in
06:28 35.3 °F 33.7 °F 29.99 in Calm   1.2 mph 94 % 0.00 in
06:33 35.2 °F 33.6 °F 29.99 in Calm     94 % 0.00 in
06:39 35.0 °F 33.4 °F 29.99 in Calm   1.0 mph 94 % 0.00 in
06:44 34.9 °F 33.3 °F 29.99 in Calm     94 % 0.00 in
06:49 34.8 °F 33.2 °F 29.99 in Calm     94 % 0.00 in
06:54 34.7 °F 33.2 °F 29.99 in Calm     94 % 0.00 in
06:59 34.6 °F 33.1 °F 29.99 in Calm     94 % 0.00 in
07:04 34.5 °F 33.0 °F 30.00 in Calm     94 % 0.00 in
07:09 34.4 °F 32.9 °F 30.00 in Calm     94 % 0.00 in
07:14 34.2 °F 32.7 °F 30.00 in NW 0.9 mph 2.3 mph 94 % 0.00 in
07:19 34.1 °F 32.6 °F 30.00 in Calm     94 % 0.00 in
07:24 34.0 °F 32.5 °F 30.00 in Calm     94 % 0.00 in
07:29 33.9 °F 32.4 °F 30.00 in Calm     94 % 0.00 in
07:34 33.8 °F 32.3 °F 30.00 in Calm     94 % 0.00 in
07:39 33.7 °F 32.2 °F 30.00 in Calm     94 % 0.00 in
07:44 33.7 °F 32.2 °F 30.01 in Calm     94 % 0.00 in
07:49 33.7 °F 32.2 °F 30.00 in Calm     94 % 0.00 in
07:55 33.6 °F 32.1 °F 30.01 in Calm   1.2 mph 94 % 0.00 in
08:00 33.6 °F 32.3 °F 30.01 in Calm   1.2 mph 95 % 0.00 in
08:05 33.6 °F 32.1 °F 30.01 in Calm     94 % 0.00 in
08:10 33.8 °F 32.5 °F 30.01 in Calm     95 % 0.00 in
08:15 33.9 °F 32.6 °F 30.01 in Calm     95 % 0.00 in
08:20 34.1 °F 32.8 °F 30.01 in Calm     95 % 0.00 in
08:25 34.4 °F 33.4 °F 30.01 in NW 0.1 mph   96 % 0.00 in
08:30 34.9 °F 33.9 °F 30.01 in Calm     96 % 0.00 in
08:35 35.3 °F 34.3 °F 30.01 in Calm     96 % 0.00 in
08:40 36.0 °F 35.2 °F 30.01 in NW 0.2 mph 2.0 mph 97 % 0.00 in
08:45 36.6 °F 35.8 °F 30.02 in Calm     97 % 0.00 in
08:50 37.2 °F 36.4 °F 30.02 in NW 1.0 mph 2.3 mph 97 % 0.00 in
08:55 37.8 °F 37.0 °F 30.01 in WNW 1.0 mph 2.3 mph 97 % 0.00 in
09:00 38.2 °F 37.4 °F 30.02 in WNW 1.1 mph 2.3 mph 97 % 0.00 in
09:05 38.5 °F 37.7 °F 30.02 in WNW 0.1 mph 1.2 mph 97 % 0.00 in
09:10 38.7 °F 37.9 °F 30.02 in WSW 1.1 mph 3.5 mph 97 % 0.00 in
09:16 39.0 °F 38.2 °F 30.02 in WSW 2.6 mph 4.6 mph 97 % 0.00 in
09:21 39.4 °F 38.6 °F 30.02 in WSW 2.2 mph 5.0 mph 97 % 0.00 in
09:26 39.7 °F 38.9 °F 30.02 in WSW 2.0 mph 5.8 mph 97 % 0.00 in
09:31 40.1 °F 39.3 °F 30.02 in WSW 4.2 mph 6.0 mph 97 % 0.00 in
09:36 40.5 °F 39.7 °F 30.02 in West 4.2 mph 6.0 mph 97 % 0.00 in
09:41 40.9 °F 40.1 °F 30.02 in WSW 2.0 mph 4.0 mph 97 % 0.00 in
09:46 41.3 °F 40.2 °F 30.02 in WSW 3.3 mph 5.8 mph 96 % 0.00 in
09:51 41.6 °F 40.5 °F 30.02 in WSW 1.3 mph 4.0 mph 96 % 0.00 in
09:56 42.1 °F 40.8 °F 30.02 in West 2.8 mph 3.5 mph 95 % 0.00 in
10:01 42.6 °F 41.0 °F 30.02 in WSW 3.0 mph 6.0 mph 94 % 0.00 in
10:06 43.0 °F 41.1 °F 30.02 in WNW 2.3 mph 3.5 mph 93 % 0.00 in
10:11 43.4 °F 40.9 °F 30.02 in WSW 3.0 mph 4.6 mph 91 % 0.00 in
10:16 43.8 °F 40.8 °F 30.01 in WNW 3.8 mph 5.0 mph 89 % 0.00 in
10:21 44.1 °F 40.5 °F 30.01 in WNW 2.9 mph 4.6 mph 87 % 0.00 in
10:26 44.3 °F 40.4 °F 30.01 in West 3.8 mph 6.9 mph 86 % 0.00 in
10:31 44.7 °F 40.5 °F 30.01 in WNW 1.5 mph 3.5 mph 85 % 0.00 in
10:36 44.9 °F 40.4 °F 30.00 in NW 2.9 mph 8.1 mph 84 % 0.00 in
10:42 45.1 °F 40.6 °F 30.00 in WSW 1.9 mph 2.0 mph 84 % 0.00 in
10:47 45.4 °F 40.5 °F 30.00 in SW 3.6 mph 6.0 mph 83 % 0.00 in
10:52 45.5 °F 40.3 °F 30.00 in WNW 3.1 mph 6.0 mph 82 % 0.00 in
10:57 45.6 °F 40.1 °F 29.99 in SW 4.1 mph 4.6 mph 81 % 0.00 in
11:02 45.6 °F 39.8 °F 29.99 in WSW 4.7 mph 7.0 mph 80 % 0.00 in
11:07 45.6 °F 40.1 °F 29.99 in WSW 2.0 mph 5.8 mph 81 % 0.00 in
11:12 45.7 °F 39.9 °F 29.99 in NW 2.0 mph 4.6 mph 80 % 0.00 in
11:17 45.8 °F 40.0 °F 29.98 in SSW 2.7 mph 5.8 mph 80 % 0.00 in
11:22 45.8 °F 40.0 °F 29.98 in WSW 2.3 mph 4.6 mph 80 % 0.00 in
11:27 45.9 °F 40.4 °F 29.98 in WNW 1.8 mph 3.5 mph 81 % 0.00 in
11:32 46.0 °F 40.2 °F 29.98 in WSW 2.9 mph 5.8 mph 80 % 0.00 in
11:37 46.0 °F 40.2 °F 29.97 in SW 3.6 mph 4.6 mph 80 % 0.00 in
11:42 46.0 °F 40.2 °F 29.97 in WNW 2.3 mph 3.5 mph 80 % 0.00 in
11:47 46.1 °F 40.3 °F 29.97 in WNW 1.6 mph 4.0 mph 80 % 0.00 in
11:52 46.1 °F 40.3 °F 29.97 in WNW 0.1 mph 3.5 mph 80 % 0.00 in
11:57 46.1 °F 40.3 °F 29.97 in WSW 1.0 mph 3.5 mph 80 % 0.00 in
12:02 46.2 °F 40.4 °F 29.97 in Calm   1.2 mph 80 % 0.00 in
12:08 46.3 °F 40.1 °F 29.96 in WSW 1.1 mph 2.3 mph 79 % 0.00 in
12:13 46.5 °F 40.3 °F 29.96 in WNW 3.1 mph 3.5 mph 79 % 0.00 in
12:18 46.7 °F 40.5 °F 29.96 in West 1.3 mph 6.0 mph 79 % 0.00 in
12:23 47.1 °F 40.6 °F 29.96 in NNW 0.3 mph 3.5 mph 78 % 0.00 in
12:28 47.5 °F 40.3 °F 29.96 in WNW 2.4 mph 6.9 mph 76 % 0.00 in
12:33 47.8 °F 40.3 °F 29.96 in SW 2.9 mph 3.5 mph 75 % 0.00 in
12:38 48.1 °F 40.2 °F 29.97 in WNW 4.6 mph 8.1 mph 74 % 0.00 in
12:43 48.4 °F 40.1 °F 29.96 in WSW 3.8 mph 6.9 mph 73 % 0.00 in
12:48 48.7 °F 40.1 °F 29.97 in NW 4.5 mph 9.2 mph 72 % 0.00 in
12:53 48.9 °F 40.3 °F 29.96 in WSW 3.1 mph 4.6 mph 72 % 0.00 in
12:58 49.1 °F 40.1 °F 29.96 in WNW 3.9 mph 9.2 mph 71 % 0.00 in
13:03 49.4 °F 40.7 °F 29.96 in NW 2.8 mph 4.6 mph 72 % 0.00 in
13:08 49.5 °F 40.5 °F 29.96 in WNW 2.7 mph 5.8 mph 71 % 0.00 in
13:13 49.6 °F 40.9 °F 29.96 in NW 1.8 mph 3.0 mph 72 % 0.00 in
13:18 49.6 °F 40.6 °F 29.96 in WNW 1.7 mph 4.0 mph 71 % 0.00 in
13:23 49.6 °F 40.2 °F 29.95 in WNW 2.2 mph 4.0 mph 70 % 0.00 in
13:28 49.5 °F 40.1 °F 29.95 in NW 1.1 mph 3.5 mph 70 % 0.00 in
13:34 49.4 °F 40.4 °F 29.95 in NW 2.3 mph 3.5 mph 71 % 0.00 in
13:39 49.3 °F 40.3 °F 29.95 in NNW 2.2 mph 3.5 mph 71 % 0.00 in
13:44 49.2 °F 40.2 °F 29.95 in NW 0.7 mph 3.5 mph 71 % 0.00 in
13:49 49.1 °F 40.1 °F 29.94 in WNW 1.0 mph 4.0 mph 71 % 0.00 in
13:54 49.0 °F 40.0 °F 29.94 in WNW 1.0 mph 5.0 mph 71 % 0.00 in
13:59 48.8 °F 39.8 °F 29.94 in WNW 1.8 mph 3.5 mph 71 % 0.00 in
14:04 48.8 °F 40.2 °F 29.94 in Calm   3.0 mph 72 % 0.00 in
14:09 48.7 °F 40.1 °F 29.94 in WNW 1.0 mph 3.0 mph 72 % 0.00 in
14:14 48.7 °F 40.1 °F 29.94 in WNW 1.0 mph 3.0 mph 72 % 0.00 in
14:19 48.7 °F 40.1 °F 29.94 in WNW 1.0 mph 2.0 mph 72 % 0.00 in
14:24 48.5 °F 39.5 °F 29.95 in WNW 0.7 mph 3.5 mph 71 % 0.00 in
14:29 48.4 °F 39.4 °F 29.95 in WNW 2.0 mph 4.0 mph 71 % 0.00 in
14:34 48.3 °F 40.0 °F 29.95 in Calm   2.0 mph 73 % 0.00 in
14:39 48.2 °F 39.6 °F 29.95 in North 1.0 mph 4.0 mph 72 % 0.00 in
14:44 48.1 °F 39.5 °F 29.95 in Calm   3.0 mph 72 % 0.00 in
14:49 48.1 °F 39.9 °F 29.95 in Calm   2.0 mph 73 % 0.00 in
14:54 48.0 °F 39.4 °F 29.95 in NNW 1.0 mph 3.0 mph 72 % 0.00 in
14:59 47.9 °F 39.7 °F 29.95 in NW 0.2 mph 2.3 mph 73 % 0.00 in
15:04 47.9 °F 39.7 °F 29.95 in NNW 2.7 mph 3.5 mph 73 % 0.00 in
15:09 47.8 °F 39.6 °F 29.94 in NNW 0.5 mph 2.3 mph 73 % 0.00 in
15:14 47.7 °F 39.5 °F 29.94 in NW 1.6 mph 3.5 mph 73 % 0.00 in
15:19 47.7 °F 39.5 °F 29.94 in WNW 1.8 mph 4.0 mph 73 % 0.00 in
15:24 47.6 °F 39.7 °F 29.94 in WSW 2.8 mph 4.6 mph 74 % 0.00 in
15:29 47.4 °F 39.5 °F 29.94 in WNW 1.7 mph 6.0 mph 74 % 0.00 in
15:34 47.2 °F 39.0 °F 29.94 in West 2.2 mph 5.0 mph 73 % 0.00 in
15:39 47.0 °F 39.1 °F 29.94 in NW 2.0 mph 3.5 mph 74 % 0.00 in
15:44 46.8 °F 38.9 °F 29.94 in West 2.6 mph 5.8 mph 74 % 0.00 in
15:49 46.7 °F 39.2 °F 29.94 in WSW 1.8 mph 3.5 mph 75 % 0.00 in
15:55 46.5 °F 39.0 °F 29.94 in WSW 3.3 mph 8.1 mph 75 % 0.00 in
16:00 46.4 °F 38.9 °F 29.94 in West 0.9 mph 4.6 mph 75 % 0.00 in
16:05 46.3 °F 38.8 °F 29.94 in WSW 1.3 mph 3.5 mph 75 % 0.00 in
16:10 46.2 °F 38.7 °F 29.95 in West 2.6 mph 5.0 mph 75 % 0.00 in
16:15 46.1 °F 38.6 °F 29.94 in West 1.4 mph 3.5 mph 75 % 0.00 in
16:20 46.0 °F 38.9 °F 29.94 in West 0.7 mph 3.5 mph 76 % 0.00 in
16:25 45.9 °F 38.4 °F 29.94 in WNW 3.3 mph 3.5 mph 75 % 0.00 in
16:30 45.8 °F 38.3 °F 29.94 in West 3.3 mph 3.5 mph 75 % 0.00 in
16:35 45.8 °F 38.3 °F 29.94 in West 1.1 mph 3.5 mph 75 % 0.00 in
16:40 45.6 °F 38.1 °F 29.95 in WSW 3.4 mph 4.0 mph 75 % 0.00 in
16:45 45.5 °F 38.4 °F 29.95 in WSW 2.9 mph 4.6 mph 76 % 0.00 in
16:50 45.5 °F 38.4 °F 29.95 in Calm   2.3 mph 76 % 0.00 in
16:55 45.4 °F 38.3 °F 29.95 in West 0.8 mph 2.0 mph 76 % 0.00 in
17:00 45.4 °F 37.9 °F 29.96 in West 3.4 mph 6.9 mph 75 % 0.00 in
17:05 45.2 °F 37.7 °F 29.96 in WSW 2.5 mph 5.8 mph 75 % 0.00 in
17:10 45.2 °F 37.7 °F 29.96 in WNW 2.0 mph 3.5 mph 75 % 0.00 in
17:15 45.2 °F 37.7 °F 29.96 in West 2.9 mph 4.6 mph 75 % 0.00 in
17:20 45.1 °F 37.6 °F 29.96 in WSW 3.5 mph 6.9 mph 75 % 0.00 in
17:30 45.1 °F 37.6 °F 29.96 in WSW 2.9 mph 4.0 mph 75 % 0.00 in
17:35 45.0 °F 37.6 °F 29.97 in WSW 0.5 mph 3.5 mph 75 % 0.00 in
17:40 44.9 °F 37.8 °F 29.97 in SW 1.1 mph 3.5 mph 76 % 0.00 in
17:45 44.9 °F 37.8 °F 29.97 in WSW 3.1 mph 4.6 mph 76 % 0.00 in
17:50 44.7 °F 37.6 °F 29.97 in WSW 0.4 mph 2.3 mph 76 % 0.00 in
17:55 44.6 °F 37.8 °F 29.97 in WSW 0.1 mph 1.2 mph 77 % 0.00 in
18:01 44.6 °F 37.5 °F 29.97 in WSW 0.1 mph 1.2 mph 76 % 0.00 in
18:06 44.5 °F 37.4 °F 29.97 in West 0.9 mph 4.0 mph 76 % 0.00 in
18:11 44.4 °F 37.3 °F 29.97 in WNW 1.5 mph 2.0 mph 76 % 0.00 in
18:16 44.4 °F 37.3 °F 29.98 in Calm   2.3 mph 76 % 0.00 in
18:21 44.3 °F 37.5 °F 29.98 in Calm   1.2 mph 77 % 0.00 in
18:26 44.2 °F 37.4 °F 29.98 in SSW 1.6 mph 2.3 mph 77 % 0.00 in
18:31 44.2 °F 37.4 °F 29.99 in SSW 1.0 mph 2.3 mph 77 % 0.00 in
18:36 44.1 °F 37.7 °F 29.99 in SSW 1.0 mph 2.3 mph 78 % 0.00 in
18:41 44.1 °F 37.7 °F 30.00 in SSW 0.4 mph 2.3 mph 78 % 0.00 in
18:46 44.0 °F 37.6 °F 30.00 in Calm   1.0 mph 78 % 0.00 in
18:51 44.0 °F 37.6 °F 30.00 in West 0.6 mph 3.0 mph 78 % 0.00 in
18:56 43.9 °F 37.5 °F 30.00 in West 0.1 mph 1.2 mph 78 % 0.00 in
19:01 43.8 °F 37.4 °F 30.00 in Calm   1.2 mph 78 % 0.00 in
19:06 43.8 °F 37.4 °F 30.00 in West 0.2 mph 1.2 mph 78 % 0.00 in
19:11 43.8 °F 37.4 °F 30.00 in WNW 0.9 mph 1.2 mph 78 % 0.00 in
19:17 43.7 °F 37.3 °F 29.99 in WNW 0.4 mph 2.3 mph 78 % 0.00 in
19:22 43.7 °F 37.3 °F 29.99 in SSW 0.6 mph 1.2 mph 78 % 0.00 in
19:27 43.7 °F 37.6 °F 29.99 in SW 0.4 mph 1.2 mph 79 % 0.00 in
19:32 43.6 °F 37.5 °F 29.99 in SSW 2.6 mph 3.5 mph 79 % 0.00 in
19:37 43.5 °F 37.4 °F 29.99 in SW 0.4 mph 2.3 mph 79 % 0.00 in
19:42 43.5 °F 37.4 °F 30.00 in SW 1.8 mph 2.3 mph 79 % 0.00 in
19:47 43.4 °F 37.6 °F 30.00 in SW 0.1 mph 2.3 mph 80 % 0.00 in
19:52 43.3 °F 37.5 °F 30.01 in WSW 2.1 mph 4.6 mph 80 % 0.00 in
19:57 43.2 °F 37.4 °F 30.00 in WSW 2.3 mph 3.5 mph 80 % 0.00 in
20:02 43.1 °F 37.3 °F 30.00 in WSW 1.2 mph 2.3 mph 80 % 0.00 in
20:07 43.1 °F 37.3 °F 30.00 in WSW 1.1 mph 2.3 mph 80 % 0.00 in
20:12 43.0 °F 37.3 °F 30.01 in SW 3.1 mph 4.6 mph 80 % 0.00 in
20:17 43.0 °F 37.3 °F 30.01 in WSW 2.8 mph 4.6 mph 80 % 0.00 in
20:22 43.0 °F 37.3 °F 30.00 in WSW 0.9 mph 2.0 mph 80 % 0.00 in
20:27 42.9 °F 37.2 °F 30.00 in West 2.1 mph 3.5 mph 80 % 0.00 in
20:32 42.9 °F 37.2 °F 30.01 in West 1.0 mph 2.3 mph 80 % 0.00 in
20:37 42.9 °F 37.2 °F 30.01 in WSW 1.0 mph 2.3 mph 80 % 0.00 in
20:43 42.9 °F 37.2 °F 30.00 in WNW 1.5 mph 3.5 mph 80 % 0.00 in
20:48 42.9 °F 37.2 °F 30.00 in Calm     80 % 0.00 in
20:53 42.8 °F 37.1 °F 30.00 in Calm     80 % 0.00 in
20:58 42.8 °F 37.4 °F 30.00 in Calm     81 % 0.00 in
21:03 42.8 °F 37.4 °F 30.00 in WNW 0.7 mph 2.3 mph 81 % 0.00 in
21:08 42.7 °F 37.3 °F 30.00 in Calm     81 % 0.00 in
21:13 42.7 °F 37.3 °F 30.00 in Calm     81 % 0.00 in
21:18 42.7 °F 37.3 °F 30.00 in Calm     81 % 0.00 in
21:23 42.6 °F 37.5 °F 30.00 in Calm     82 % 0.00 in
21:28 42.5 °F 37.4 °F 30.00 in Calm     82 % 0.00 in
21:33 42.5 °F 37.4 °F 30.00 in Calm     82 % 0.00 in
21:38 42.4 °F 37.3 °F 30.00 in Calm     82 % 0.00 in
21:43 42.3 °F 37.2 °F 30.00 in Calm     82 % 0.00 in
21:48 42.3 °F 37.2 °F 29.99 in Calm     82 % 0.00 in
21:53 42.2 °F 37.1 °F 29.99 in WNW 0.2 mph 1.2 mph 82 % 0.00 in
21:59 42.2 °F 37.4 °F 29.99 in NW 0.5 mph 2.0 mph 83 % 0.00 in
22:04 42.1 °F 37.3 °F 29.99 in NW 1.5 mph 2.3 mph 83 % 0.00 in
22:09 42.0 °F 37.2 °F 29.99 in North 3.2 mph 4.6 mph 83 % 0.00 in
22:14 42.0 °F 37.2 °F 29.99 in NNE 2.5 mph 5.8 mph 83 % 0.00 in
22:19 41.9 °F 37.1 °F 29.99 in NNE 3.0 mph 6.0 mph 83 % 0.00 in
22:24 41.8 °F 37.0 °F 29.99 in NNE 3.0 mph 7.0 mph 83 % 0.00 in
22:29 41.8 °F 37.0 °F 29.99 in NNE 5.0 mph 10.0 mph 83 % 0.00 in
22:34 41.7 °F 37.2 °F 29.99 in NNE 3.0 mph 8.0 mph 84 % 0.00 in
22:39 41.7 °F 37.2 °F 29.99 in NNE 3.0 mph 6.0 mph 84 % 0.00 in
22:44 41.7 °F 37.2 °F 29.99 in NNE 1.0 mph 6.0 mph 84 % 0.00 in
22:49 41.6 °F 37.1 °F 29.99 in NNE 2.0 mph 5.0 mph 84 % 0.00 in
22:54 41.6 °F 37.1 °F 29.99 in NNE 3.0 mph 7.0 mph 84 % 0.00 in
22:59 41.5 °F 37.0 °F 29.98 in NNE 5.1 mph 8.1 mph 84 % 0.00 in
23:04 41.5 °F 36.7 °F 29.99 in NNE 6.0 mph 8.1 mph 83 % 0.00 in
23:09 41.4 °F 36.3 °F 29.98 in NNE 4.6 mph 9.2 mph 82 % 0.00 in
23:14 41.3 °F 35.9 °F 29.98 in NNE 7.5 mph 12.7 mph 81 % 0.00 in
23:19 41.3 °F 35.9 °F 29.99 in NNE 7.9 mph 11.5 mph 81 % 0.00 in
23:24 41.2 °F 35.8 °F 29.99 in NNE 7.3 mph 12.7 mph 81 % 0.00 in
23:29 41.2 °F 35.5 °F 29.99 in NE 6.4 mph 12.0 mph 80 % 0.00 in
23:34 41.2 °F 35.5 °F 29.99 in NNE 8.2 mph 12.0 mph 80 % 0.00 in
23:39 41.2 °F 35.5 °F 29.99 in NNE 4.7 mph 7.0 mph 80 % 0.00 in
23:44 41.1 °F 35.4 °F 29.99 in North 6.2 mph 9.2 mph 80 % 0.00 in
23:49 41.1 °F 34.8 °F 29.99 in NNE 5.2 mph 6.9 mph 78 % 0.00 in
23:54 41.1 °F 34.8 °F 29.99 in North 2.2 mph 3.5 mph 78 % 0.00 in
23:59 41.0 °F 34.7 °F 29.99 in North 1.1 mph 5.0 mph 78 % 0.00 in
Crab Meadow Weather
Compliments of Weather Underground - 3 mb

Script developed by  Jim McMurry - jmcmurry@mwt.net Adapted for the template by  Wim van der Kuil - Leuven-Template.eu

Weather Terms: Freeze Warning - Widespread temperatures at or below 32°F during the growing season. A freeze may occur with or without frost. A hard freeze occurs with temperatures below 28°F. Growing season is based on the average date of first and last freeze at O'Hare. It begins April 17 and ends October 27.